Showing default

KINEIS-1B, 60079

Orbit data source: Space-Track

KINEIS-1B, 60079 is a French payload satellite in SSO that was launched on Thu, 20 Jun 2024 UTC via an ELECTRON launch vehicle from the Rocket Lab Launch Complex (RLLC). Payloads include a variety of satellites, spacecraft, and rockets equipped with specific instruments for various scientific and technological missions. These include communications satellites like Starlink; space stations such as the ISS; scientific satellites like the Hubble; Earth observation satellites from companies like Planet Labs, Umbra, and HawkEye 360; GPS; miniature CubeSats for education and research; and military/defense satellites.

Loading next visibility...
KINEIS-1B details
Identifier
60079, 2024-114A
Orbit
SSO
Last TLE update12 hours ago
Origin
Flag of FRKINEIS (FR)
ManufacturerKINEIS
MissionOperational Commercial Communications
Bus & MotorCUBESAT 16U, Unknown motor
Mass28 kg wet, 28 kg dry
Launch date (UTC)
2024-06-20 (6 months ago)
Launch vehicle
ELECTRON
Launch site
Rocket Lab Launch Complex (RLLC)
Object type
Payload
Rocket body
Debris
Shape & HBRBox + 2 Pan + 1 Ant, 1.6 m
Radar Cross Section0.229 m², Medium (>0.1 m² and < 1m²)

Expand to show TLE details & history

TLE from 12 hours ago
0 KINEIS-1B
1 60079U 24114A   24348.12107692  .00002121  00000-0  29621-3 0  9992
2 60079  98.0211   3.2730 0004038  84.9197 275.2475 14.78703088 25907
Epoch: 2024-12-13T02:54Z
Definitive object data (Epoch: 2024-12-13T02:54:21.045Z)
Latitude-0.00002°
Longitude-122.60629°
Altitude636.179 km
Speed7.54 km/s
True Right ascension00h 13m 05s
True Declination0° 00' 00"
Sunlit
Object was in daylight at TLE epoch
Visualization TLE readout
Latitude15.68565°
Longitude60.15204°
Altitude635.292 km
Speed7.542 km/s
Apparent Right ascension10h 06m 07s
Apparent Declination-41° 05' 51"
Sunlit
Object is in daylight
Visualization observer readout
Local Sidereal Time13:31:29
Azimuth216.125° SW
Elevation-3.482°
Doppler factor1
Orbital elements
Apogee altitude633.299 km
Perigee altitude627.639 km
Semi-major axis7,008.606 km
Eccentricity0.0004038
Inclination98.0211°
RAAN3.273°
Arg. of periapsis84.9197°
True anomaly275.20142°
Mean anomaly275.2475°
Eccentric anomaly275.22446°
Mean motion3.6991 °/min
BSTAR0.00029621
Orbital period97.32 mins
Loading maneuver chart data...
Loading historical data...
Loading historical data...
Loading historical data...
Loading historical data...
Loading historical data...
Loading historical data...
Loading historical data...

KINEIS-1B Visibility forecast

Observer location: undefined°, undefined

Span
Click to sort rows by Start time (UTC) header in descending order
Start Az.
Max El. time (UTC)
Max El. Az.
Max El.
End time (UTC)
End Az.
5 mins2024-12-14 00:10:48.654Z101.52° ESE2024-12-14 00:12:48.654Z70.442° E17.519°2024-12-14 00:15:48.654Z24.804° NE
6 mins2024-12-14 01:46:48.654Z206.085° SW2024-12-14 01:48:48.654Z250.841° W31.81°2024-12-14 01:52:48.654Z329.009° NNW
6 mins2024-12-14 13:35:48.654Z37.759° NE2024-12-14 13:38:48.654Z102.895° ESE31.46°2024-12-14 13:41:48.654Z160.927° S
|